Time,TemperatureF,DewpointF,PressureIn,WindDirection,WindDirectionDegrees,WindSpeedMPH,WindSpeedGustMPH,Humidity,HourlyPrecipIn,Conditions,Clouds,dailyrainin,SoftwareType,DateUTC
2013-07-18 00:01:00,56.5,31.2,29.80,ESE,109,2.7,2.7,38,0.00,,---,0.00,VWS V14.01,2013-07-18 07:01:00,
2013-07-18 00:06:00,55.9,30.7,29.80,NE,42,2.7,2.7,38,0.00,,---,0.00,VWS V14.01,2013-07-18 07:06:00,
2013-07-18 00:11:00,55.8,31.2,29.80,NE,37,2.7,2.7,39,0.00,,---,0.00,VWS V14.01,2013-07-18 07:11:00,
2013-07-18 00:16:00,55.4,30.9,29.80,NE,37,2.7,2.7,39,0.00,,---,0.00,VWS V14.01,2013-07-18 07:16:00,
2013-07-18 00:21:00,55.9,32.6,29.80,NE,37,2.7,2.7,41,0.00,,---,0.00,VWS V14.01,2013-07-18 07:21:00,
2013-07-18 00:26:00,56.3,32.3,29.80,NNE,32,3.1,3.1,40,0.00,,---,0.00,VWS V14.01,2013-07-18 07:26:00,
2013-07-18 00:31:00,55.9,32.6,29.80,NNE,32,3.1,3.1,41,0.00,,---,0.00,VWS V14.01,2013-07-18 07:31:00,
2013-07-18 00:36:00,55.4,32.1,29.80,NE,36,0.0,3.1,41,0.00,,---,0.00,VWS V14.01,2013-07-18 07:36:00,
2013-07-18 00:41:00,55.2,32.0,29.80,NNE,17,0.0,0.0,41,0.00,,---,0.00,VWS V14.01,2013-07-18 07:41:00,
2013-07-18 00:46:00,55.0,31.8,29.80,NNE,17,0.0,0.0,41,0.00,,---,0.00,VWS V14.01,2013-07-18 07:46:00,
2013-07-18 00:51:00,55.0,32.4,29.80,NNE,17,0.0,0.0,42,0.00,,---,0.00,VWS V14.01,2013-07-18 07:51:00,
2013-07-18 00:56:00,54.9,32.2,29.80,NNE,17,0.0,0.0,42,0.00,,---,0.00,VWS V14.01,2013-07-18 07:56:00,
2013-07-18 01:01:00,54.7,32.1,29.80,NNE,30,0.0,0.0,42,0.00,,---,0.00,VWS V14.01,2013-07-18 08:01:00,
2013-07-18 01:06:00,54.7,32.1,29.80,NNE,30,0.0,0.0,42,0.00,,---,0.00,VWS V14.01,2013-07-18 08:06:00,
2013-07-18 01:11:00,54.7,32.1,29.80,NNE,30,0.0,0.0,42,0.00,,---,0.00,VWS V14.01,2013-07-18 08:11:00,
2013-07-18 01:16:00,54.7,32.6,29.80,ENE,68,4.5,4.5,43,0.00,,---,0.00,VWS V14.01,2013-07-18 08:16:00,
2013-07-18 01:21:00,54.5,32.5,29.80,ENE,68,4.5,4.5,43,0.00,,---,0.00,VWS V14.01,2013-07-18 08:21:00,
2013-07-18 01:26:00,54.5,32.5,29.80,ENE,68,4.5,4.5,43,0.00,,---,0.00,VWS V14.01,2013-07-18 08:26:00,
2013-07-18 01:31:00,54.5,33.6,29.80,NE,41,5.4,5.4,45,0.00,,---,0.00,VWS V14.01,2013-07-18 08:31:00,
2013-07-18 01:36:00,54.5,34.2,29.80,NE,41,5.4,5.4,46,0.00,,---,0.00,VWS V14.01,2013-07-18 08:36:00,
2013-07-18 01:41:00,54.5,34.2,29.80,NE,41,5.4,5.4,46,0.00,,---,0.00,VWS V14.01,2013-07-18 08:41:00,
2013-07-18 01:46:00,54.3,34.0,29.80,NE,42,3.1,3.1,46,0.00,,---,0.00,VWS V14.01,2013-07-18 08:46:00,
2013-07-18 01:51:00,54.1,34.4,29.80,NE,42,3.1,3.1,47,0.00,,---,0.00,VWS V14.01,2013-07-18 08:51:00,
2013-07-18 01:56:00,54.9,35.6,29.80,NE,42,3.1,3.1,48,0.00,,---,0.00,VWS V14.01,2013-07-18 08:56:00,
2013-07-18 02:01:00,54.9,35.6,29.80,NE,42,3.1,3.1,48,0.00,,---,0.00,VWS V14.01,2013-07-18 09:01:00,
2013-07-18 02:06:00,55.2,35.9,29.80,North,7,5.4,5.4,48,0.00,,---,0.00,VWS V14.01,2013-07-18 09:06:00,
2013-07-18 02:11:00,55.2,35.9,29.80,North,8,3.1,3.1,48,0.00,,---,0.00,VWS V14.01,2013-07-18 09:11:00,
2013-07-18 02:16:00,55.6,35.7,29.80,NNE,12,2.7,2.7,47,0.00,,---,0.00,VWS V14.01,2013-07-18 09:16:00,
2013-07-18 02:21:00,55.8,35.8,29.80,NNE,29,4.9,4.9,47,0.00,,---,0.00,VWS V14.01,2013-07-18 09:21:00,
2013-07-18 02:26:00,56.3,36.3,29.80,ESE,111,2.7,2.7,47,0.00,,---,0.00,VWS V14.01,2013-07-18 09:26:00,
2013-07-18 02:31:00,55.8,35.8,29.80,ESE,111,2.7,2.7,47,0.00,,---,0.00,VWS V14.01,2013-07-18 09:31:00,
2013-07-18 02:36:00,55.9,36.5,29.80,ESE,111,2.7,2.7,48,0.00,,---,0.00,VWS V14.01,2013-07-18 09:36:00,
2013-07-18 02:41:00,56.1,36.7,29.80,ESE,104,3.6,3.6,48,0.00,,---,0.00,VWS V14.01,2013-07-18 09:41:00,
2013-07-18 02:46:00,55.6,36.2,29.80,ESE,104,3.6,3.6,48,0.00,,---,0.00,VWS V14.01,2013-07-18 09:46:00,
2013-07-18 02:51:00,55.4,36.6,29.80,NE,41,0.0,0.0,49,0.00,,---,0.00,VWS V14.01,2013-07-18 09:51:00,
2013-07-18 02:56:00,55.0,36.8,29.80,NE,41,0.0,0.0,50,0.00,,---,0.00,VWS V14.01,2013-07-18 09:56:00,
2013-07-18 03:01:00,54.9,37.1,29.80,NE,41,0.0,0.0,51,0.00,,---,0.00,VWS V14.01,2013-07-18 10:01:00,
2013-07-18 03:06:00,54.5,36.3,29.80,NNE,25,0.0,0.0,50,0.00,,---,0.00,VWS V14.01,2013-07-18 10:06:00,
2013-07-18 03:11:00,54.1,35.9,29.80,NNE,33,2.7,2.7,50,0.00,,---,0.00,VWS V14.01,2013-07-18 10:11:00,
2013-07-18 03:16:00,54.1,36.4,29.80,NNE,33,2.7,2.7,51,0.00,,---,0.00,VWS V14.01,2013-07-18 10:16:00,
2013-07-18 03:21:00,54.0,36.8,29.80,ENE,74,3.1,3.1,52,0.00,,---,0.00,VWS V14.01,2013-07-18 10:21:00,
2013-07-18 03:26:00,54.1,37.4,29.80,NE,45,4.0,4.0,53,0.00,,---,0.00,VWS V14.01,2013-07-18 10:26:00,
2013-07-18 03:31:00,54.3,37.6,29.80,NNE,32,4.0,4.0,53,0.00,,---,0.00,VWS V14.01,2013-07-18 10:31:00,
2013-07-18 03:36:00,54.3,38.5,29.80,NNE,32,4.0,4.0,55,0.00,,---,0.00,VWS V14.01,2013-07-18 10:36:00,
2013-07-18 03:41:00,55.4,40.9,29.80,NNE,32,4.0,4.0,58,0.00,,---,0.00,VWS V14.01,2013-07-18 10:41:00,
2013-07-18 03:46:00,55.4,39.0,29.80,ESE,103,4.0,4.0,54,0.00,,---,0.00,VWS V14.01,2013-07-18 10:46:00,
2013-07-18 03:51:00,56.1,38.3,29.80,ESE,103,4.0,4.0,51,0.00,,---,0.00,VWS V14.01,2013-07-18 10:51:00,
2013-07-18 03:56:00,54.7,35.9,29.80,SW,216,0.0,0.0,49,0.00,,---,0.00,VWS V14.01,2013-07-18 10:56:00,
2013-07-18 04:01:00,53.4,35.3,29.80,SW,216,0.0,0.0,50,0.00,,---,0.00,VWS V14.01,2013-07-18 11:01:00,
2013-07-18 04:06:00,53.1,36.4,29.80,SW,216,0.0,0.0,53,0.00,,---,0.00,VWS V14.01,2013-07-18 11:06:00,
2013-07-18 04:11:00,52.7,37.0,29.80,SW,216,0.0,0.0,55,0.00,,---,0.00,VWS V14.01,2013-07-18 11:11:00,
2013-07-18 04:16:00,52.5,37.3,29.80,West,262,0.0,0.0,56,0.00,,---,0.00,VWS V14.01,2013-07-18 11:16:00,
2013-07-18 04:21:00,52.3,37.6,29.80,West,262,0.0,0.0,57,0.00,,---,0.00,VWS V14.01,2013-07-18 11:21:00,
2013-07-18 04:26:00,52.0,37.2,29.80,West,262,0.0,0.0,57,0.00,,---,0.00,VWS V14.01,2013-07-18 11:26:00,
2013-07-18 04:31:00,52.0,39.4,29.80,West,262,0.0,0.0,62,0.00,,---,0.00,VWS V14.01,2013-07-18 11:31:00,
2013-07-18 04:36:00,51.3,38.7,29.80,West,262,0.0,0.0,62,0.00,,---,0.00,VWS V14.01,2013-07-18 11:36:00,
2013-07-18 04:41:00,50.9,38.4,29.80,West,262,0.0,0.0,62,0.00,,---,0.00,VWS V14.01,2013-07-18 11:41:00,
2013-07-18 04:46:00,51.1,39.7,29.80,West,262,0.0,0.0,65,0.00,,---,0.00,VWS V14.01,2013-07-18 11:46:00,
2013-07-18 04:51:00,51.3,40.7,29.80,West,262,0.0,0.0,67,0.00,,---,0.00,VWS V14.01,2013-07-18 11:51:00,
2013-07-18 04:56:00,50.5,40.0,29.80,West,262,0.0,0.0,67,0.00,,---,0.00,VWS V14.01,2013-07-18 11:56:00,
2013-07-18 05:01:00,50.7,40.6,29.80,West,262,0.0,0.0,68,0.00,,---,0.00,VWS V14.01,2013-07-18 12:01:00,
2013-07-18 05:06:00,50.2,39.7,29.80,West,262,0.0,0.0,67,0.00,,---,0.00,VWS V14.01,2013-07-18 12:06:00,
2013-07-18 05:11:00,50.2,39.7,29.80,West,262,0.0,0.0,67,0.00,,---,0.00,VWS V14.01,2013-07-18 12:11:00,
2013-07-18 05:16:00,50.4,40.2,29.80,West,262,0.0,0.0,68,0.00,,---,0.00,VWS V14.01,2013-07-18 12:16:00,
2013-07-18 05:21:00,50.4,40.2,29.80,West,262,0.0,0.0,68,0.00,,---,0.00,VWS V14.01,2013-07-18 12:21:00,
2013-07-18 05:26:00,50.7,41.3,29.80,West,262,0.0,0.0,70,0.00,,---,0.00,VWS V14.01,2013-07-18 12:26:00,
2013-07-18 05:31:00,51.3,42.9,29.80,West,262,0.0,0.0,73,0.00,,---,0.00,VWS V14.01,2013-07-18 12:31:00,
2013-07-18 05:36:00,50.4,41.7,29.80,SW,235,0.0,0.0,72,0.00,,---,0.00,VWS V14.01,2013-07-18 12:36:00,
2013-07-18 05:41:00,50.2,41.5,29.80,SW,235,0.0,0.0,72,0.00,,---,0.00,VWS V14.01,2013-07-18 12:41:00,
2013-07-18 05:46:00,50.0,41.0,29.80,SW,235,0.0,0.0,71,0.00,,---,0.00,VWS V14.01,2013-07-18 12:46:00,
2013-07-18 05:51:00,50.2,41.5,29.80,SW,235,0.0,0.0,72,0.00,,---,0.00,VWS V14.01,2013-07-18 12:51:00,
2013-07-18 05:56:00,49.6,40.6,29.80,SW,235,0.0,0.0,71,0.00,,---,0.00,VWS V14.01,2013-07-18 12:56:00,
2013-07-18 06:01:00,49.8,40.8,29.80,SW,235,0.0,0.0,71,0.00,,---,0.00,VWS V14.01,2013-07-18 13:01:00,
2013-07-18 06:06:00,52.3,43.6,29.83,SW,235,0.0,0.0,72,0.00,,---,0.00,VWS V14.01,2013-07-18 13:06:00,
2013-07-18 06:11:00,54.5,45.3,29.83,SSE,160,0.0,0.0,71,0.00,,---,0.00,VWS V14.01,2013-07-18 13:11:00,
2013-07-18 06:16:00,55.2,44.5,29.83,South,178,0.0,0.0,67,0.00,,---,0.00,VWS V14.01,2013-07-18 13:16:00,
2013-07-18 06:21:00,57.4,46.5,29.83,ESE,109,3.1,4.0,67,0.00,,---,0.00,VWS V14.01,2013-07-18 13:21:00,
2013-07-18 06:26:00,58.6,39.0,29.83,SE,146,0.0,4.0,48,0.00,,---,0.00,VWS V14.01,2013-07-18 13:26:00,
2013-07-18 06:31:00,57.6,35.8,29.83,ESE,114,7.6,8.7,44,0.00,,---,0.00,VWS V14.01,2013-07-18 13:31:00,
2013-07-18 06:36:00,56.8,36.8,29.83,ESE,115,8.1,10.5,47,0.00,,---,0.00,VWS V14.01,2013-07-18 13:36:00,
2013-07-18 06:41:00,56.7,38.2,29.83,NNE,19,5.4,8.3,50,0.00,,---,0.00,VWS V14.01,2013-07-18 13:41:00,
2013-07-18 06:46:00,56.8,38.4,29.83,East,96,5.8,6.3,50,0.00,,---,0.00,VWS V14.01,2013-07-18 13:46:00,
2013-07-18 06:51:00,57.6,38.6,29.83,ESE,104,7.2,7.2,49,0.00,,---,0.00,VWS V14.01,2013-07-18 13:51:00,
2013-07-18 06:56:00,57.7,37.7,29.83,ENE,73,10.5,10.5,47,0.00,,---,0.00,VWS V14.01,2013-07-18 13:56:00,
2013-07-18 07:01:00,57.0,37.0,29.83,ESE,114,10.5,10.5,47,0.00,,---,0.00,VWS V14.01,2013-07-18 14:01:00,
2013-07-18 07:06:00,57.4,37.3,29.80,ESE,109,6.3,6.3,47,0.00,,---,0.00,VWS V14.01,2013-07-18 14:06:00,
2013-07-18 07:11:00,58.8,37.0,29.80,ESE,104,7.6,8.3,44,0.00,,---,0.00,VWS V14.01,2013-07-18 14:11:00,
2013-07-18 07:16:00,59.5,34.6,29.80,SE,135,7.2,8.7,39,0.00,,---,0.00,VWS V14.01,2013-07-18 14:16:00,
2013-07-18 07:21:00,61.2,36.0,29.80,SE,125,5.4,5.8,39,0.00,,---,0.00,VWS V14.01,2013-07-18 14:21:00,
2013-07-18 07:26:00,60.6,34.9,29.83,ESE,103,6.3,6.3,38,0.00,,---,0.00,VWS V14.01,2013-07-18 14:26:00,
2013-07-18 07:31:00,60.8,34.4,29.83,ESE,117,7.6,8.3,37,0.00,,---,0.00,VWS V14.01,2013-07-18 14:31:00,
2013-07-18 07:36:00,58.6,34.4,29.83,SE,128,8.3,8.7,40,0.00,,---,0.00,VWS V14.01,2013-07-18 14:36:00,
2013-07-18 07:41:00,58.8,36.4,29.83,SE,128,5.8,6.7,43,0.00,,---,0.00,VWS V14.01,2013-07-18 14:41:00,
2013-07-18 07:46:00,59.7,36.0,29.83,East,95,4.9,5.8,41,0.00,,---,0.00,VWS V14.01,2013-07-18 14:46:00,
2013-07-18 07:51:00,59.4,35.1,29.83,ESE,113,6.7,6.7,40,0.00,,---,0.00,VWS V14.01,2013-07-18 14:51:00,
2013-07-18 07:56:00,57.9,36.2,29.83,East,91,8.3,8.3,44,0.00,,---,0.00,VWS V14.01,2013-07-18 14:56:00,
2013-07-18 08:01:00,59.0,34.7,29.83,ESE,107,8.7,8.7,40,0.00,,---,0.00,VWS V14.01,2013-07-18 15:01:00,
2013-07-18 08:06:00,59.7,34.1,29.83,ESE,108,5.8,8.7,38,0.00,,---,0.00,VWS V14.01,2013-07-18 15:06:00,
2013-07-18 08:11:00,61.7,34.5,29.83,SE,124,3.1,5.8,36,0.00,,---,0.00,VWS V14.01,2013-07-18 15:11:00,
2013-07-18 08:16:00,62.2,34.3,29.83,ENE,57,5.8,5.8,35,0.00,,---,0.00,VWS V14.01,2013-07-18 15:16:00,
2013-07-18 08:21:00,63.1,33.6,29.83,ESE,110,7.6,7.6,33,0.00,,---,0.00,VWS V14.01,2013-07-18 15:21:00,
2013-07-18 08:26:00,61.7,33.1,29.83,ESE,109,10.5,10.5,34,0.00,,---,0.00,VWS V14.01,2013-07-18 15:26:00,
2013-07-18 08:31:00,63.0,34.2,29.83,ESE,110,8.1,8.3,34,0.00,,---,0.00,VWS V14.01,2013-07-18 15:31:00,
2013-07-18 08:36:00,63.3,34.5,29.83,SE,131,6.3,9.6,34,0.00,,---,0.00,VWS V14.01,2013-07-18 15:36:00,
2013-07-18 08:41:00,66.6,30.6,29.83,NNE,33,8.3,8.3,26,0.00,,---,0.00,VWS V14.01,2013-07-18 15:41:00,
2013-07-18 08:46:00,73.4,24.5,29.83,NNE,14,4.0,4.0,16,0.00,,---,0.00,VWS V14.01,2013-07-18 15:46:00,
2013-07-18 08:51:00,70.2,23.4,29.83,NE,34,8.7,8.7,17,0.00,,---,0.00,VWS V14.01,2013-07-18 15:51:00,
2013-07-18 08:56:00,65.5,27.8,29.83,East,88,6.3,8.7,24,0.00,,---,0.00,VWS V14.01,2013-07-18 15:56:00,
2013-07-18 09:01:00,65.3,27.6,29.83,East,93,10.1,10.1,24,0.00,,---,0.00,VWS V14.01,2013-07-18 16:01:00,
2013-07-18 09:06:00,64.2,28.6,29.83,ESE,109,10.1,10.1,26,0.00,,---,0.00,VWS V14.01,2013-07-18 16:06:00,
2013-07-18 09:11:00,66.7,28.8,29.83,NNW,340,3.6,8.7,24,0.00,,---,0.00,VWS V14.01,2013-07-18 16:11:00,
2013-07-18 09:16:00,68.2,27.9,29.83,North,0,4.9,7.6,22,0.00,,---,0.00,VWS V14.01,2013-07-18 16:16:00,
2013-07-18 09:21:00,73.0,24.2,29.83,NE,48,5.8,6.3,16,0.00,,---,0.00,VWS V14.01,2013-07-18 16:21:00,
2013-07-18 09:26:00,77.0,16.3,29.83,SE,127,3.1,5.4,10,0.00,,---,0.00,VWS V14.01,2013-07-18 16:26:00,
2013-07-18 09:31:00,79.2,18.0,29.83,ENE,58,5.8,5.8,10,0.00,,---,0.00,VWS V14.01,2013-07-18 16:31:00,
2013-07-18 09:36:00,76.8,16.2,29.83,NNE,15,4.0,6.3,10,0.00,,---,0.00,VWS V14.01,2013-07-18 16:36:00,
2013-07-18 09:41:00,76.6,16.0,29.83,ENE,60,8.1,8.1,10,0.00,,---,0.00,VWS V14.01,2013-07-18 16:41:00,
2013-07-18 09:46:00,79.3,18.1,29.83,NE,50,10.1,10.1,10,0.00,,---,0.00,VWS V14.01,2013-07-18 16:46:00,
2013-07-18 09:51:00,79.5,18.2,29.83,NE,52,5.8,5.8,10,0.00,,---,0.00,VWS V14.01,2013-07-18 16:51:00,
2013-07-18 09:56:00,77.0,16.3,29.83,NE,36,3.6,5.4,10,0.00,,---,0.00,VWS V14.01,2013-07-18 16:56:00,
2013-07-18 10:01:00,75.2,14.9,29.83,NE,34,6.3,8.1,10,0.00,,---,0.00,VWS V14.01,2013-07-18 17:01:00,
2013-07-18 10:06:00,78.3,17.3,29.83,East,84,8.3,9.2,10,0.00,,---,0.00,VWS V14.01,2013-07-18 17:06:00,
2013-07-18 10:11:00,77.9,17.0,29.83,ESE,106,12.3,12.3,10,0.00,,---,0.00,VWS V14.01,2013-07-18 17:11:00,
2013-07-18 10:16:00,67.1,17.9,29.83,ESE,106,8.1,8.7,15,0.00,,---,0.00,VWS V14.01,2013-07-18 17:16:00,
2013-07-18 10:21:00,71.8,20.1,29.80,East,85,5.8,5.8,14,0.00,,---,0.00,VWS V14.01,2013-07-18 17:21:00,
2013-07-18 10:26:00,75.4,15.1,29.80,NE,35,7.6,11.4,10,0.00,,---,0.00,VWS V14.01,2013-07-18 17:26:00,
2013-07-18 10:31:00,75.4,15.1,29.80,NNE,15,5.8,8.3,10,0.00,,---,0.00,VWS V14.01,2013-07-18 17:31:00,
2013-07-18 10:36:00,75.2,14.9,29.80,NNE,17,5.4,5.4,10,0.00,,---,0.00,VWS V14.01,2013-07-18 17:36:00,
2013-07-18 10:41:00,78.8,17.7,29.80,NE,48,4.9,4.9,10,0.00,,---,0.00,VWS V14.01,2013-07-18 17:41:00,
2013-07-18 10:46:00,78.6,17.5,29.80,NE,48,8.3,8.3,10,0.00,,---,0.00,VWS V14.01,2013-07-18 17:46:00,
2013-07-18 10:51:00,71.2,16.1,29.80,NE,43,8.3,8.3,12,0.00,,---,0.00,VWS V14.01,2013-07-18 17:51:00,
2013-07-18 10:56:00,72.5,15.0,29.80,NE,36,10.5,10.5,11,0.00,,---,0.00,VWS V14.01,2013-07-18 17:56:00,
2013-07-18 11:01:00,75.6,15.2,29.80,NNE,19,11.0,11.0,10,0.00,,---,0.00,VWS V14.01,2013-07-18 18:01:00,
2013-07-18 11:06:00,79.5,18.2,29.80,NE,52,12.8,12.8,10,0.00,,---,0.00,VWS V14.01,2013-07-18 18:06:00,
2013-07-18 11:11:00,80.6,16.6,29.80,NE,44,8.1,8.1,9,0.00,,---,0.00,VWS V14.01,2013-07-18 18:11:00,
2013-07-18 11:16:00,79.3,18.1,29.80,North,10,6.7,11.0,10,0.00,,---,0.00,VWS V14.01,2013-07-18 18:16:00,
2013-07-18 11:21:00,73.0,15.5,29.80,NE,52,8.3,8.3,11,0.00,,---,0.00,VWS V14.01,2013-07-18 18:21:00,
2013-07-18 11:26:00,78.1,17.1,29.80,NNE,23,10.5,11.0,10,0.00,,---,0.00,VWS V14.01,2013-07-18 18:26:00,
2013-07-18 11:31:00,72.1,14.8,29.80,NE,46,7.6,11.0,11,0.00,,---,0.00,VWS V14.01,2013-07-18 18:31:00,
2013-07-18 11:36:00,79.2,18.0,29.80,NE,35,6.3,6.3,10,0.00,,---,0.00,VWS V14.01,2013-07-18 18:36:00,
2013-07-18 11:41:00,78.4,17.4,29.80,ESE,114,8.7,9.6,10,0.00,,---,0.00,VWS V14.01,2013-07-18 18:41:00,
2013-07-18 11:46:00,80.4,18.9,29.80,NE,56,7.6,8.3,10,0.00,,---,0.00,VWS V14.01,2013-07-18 18:46:00,
2013-07-18 11:51:00,71.8,14.5,29.80,NE,55,11.0,12.8,11,0.00,,---,0.00,VWS V14.01,2013-07-18 18:51:00,
2013-07-18 11:56:00,78.4,17.4,29.80,NE,49,7.2,8.7,10,0.00,,---,0.00,VWS V14.01,2013-07-18 18:56:00,
2013-07-18 12:01:00,80.4,10.8,29.80,NE,54,8.3,10.5,7,0.00,,---,0.00,VWS V14.01,2013-07-18 19:01:00,
2013-07-18 12:06:00,78.6,17.5,29.80,ENE,57,5.4,7.6,10,0.00,,---,0.00,VWS V14.01,2013-07-18 19:06:00,
2013-07-18 12:11:00,77.5,16.7,29.80,NE,47,10.5,10.5,10,0.00,,---,0.00,VWS V14.01,2013-07-18 19:11:00,
2013-07-18 12:16:00,80.8,11.0,29.80,NE,49,8.1,10.5,7,0.00,,---,0.00,VWS V14.01,2013-07-18 19:16:00,
2013-07-18 12:21:00,79.5,10.1,29.80,ENE,58,9.6,12.8,7,0.00,,---,0.00,VWS V14.01,2013-07-18 19:21:00,
2013-07-18 12:26:00,78.1,12.0,29.80,East,81,8.7,8.7,8,0.00,,---,0.00,VWS V14.01,2013-07-18 19:26:00,
2013-07-18 12:31:00,81.1,11.3,29.80,East,96,8.7,10.5,7,0.00,,---,0.00,VWS V14.01,2013-07-18 19:31:00,
2013-07-18 12:36:00,81.9,11.8,29.80,NE,40,8.7,8.7,7,0.00,,---,0.00,VWS V14.01,2013-07-18 19:36:00,
2013-07-18 12:41:00,80.1,10.5,29.80,SSE,149,8.3,8.3,7,0.00,,---,0.00,VWS V14.01,2013-07-18 19:41:00,
2013-07-18 12:46:00,77.5,11.6,29.80,ESE,113,10.5,10.5,8,0.00,,---,0.00,VWS V14.01,2013-07-18 19:46:00,
2013-07-18 12:51:00,78.3,12.2,29.80,ENE,71,7.6,8.7,8,0.00,,---,0.00,VWS V14.01,2013-07-18 19:51:00,
2013-07-18 12:56:00,82.2,12.1,29.80,NNE,20,12.8,12.8,7,0.00,,---,0.00,VWS V14.01,2013-07-18 19:56:00,
2013-07-18 13:01:00,82.2,12.1,29.80,NE,48,11.4,11.4,7,0.00,,---,0.00,VWS V14.01,2013-07-18 20:01:00,
2013-07-18 13:06:00,81.3,11.4,29.80,NNE,33,10.1,12.8,7,0.00,,---,0.00,VWS V14.01,2013-07-18 20:06:00,
2013-07-18 13:11:00,84.4,10.2,29.80,NE,47,10.5,10.5,6,0.00,,---,0.00,VWS V14.01,2013-07-18 20:11:00,
2013-07-18 13:16:00,84.2,10.1,29.80,NE,52,8.7,8.7,6,0.00,,---,0.00,VWS V14.01,2013-07-18 20:16:00,
2013-07-18 13:21:00,82.9,9.1,29.80,NE,41,8.1,8.3,6,0.00,,---,0.00,VWS V14.01,2013-07-18 20:21:00,
2013-07-18 13:26:00,82.4,8.8,29.80,NNE,25,11.0,11.0,6,0.00,,---,0.00,VWS V14.01,2013-07-18 20:26:00,
2013-07-18 13:31:00,83.7,9.7,29.80,NNE,16,10.1,10.1,6,0.00,,---,0.00,VWS V14.01,2013-07-18 20:31:00,
2013-07-18 13:36:00,80.2,10.6,29.80,ESE,105,6.3,6.3,7,0.00,,---,0.00,VWS V14.01,2013-07-18 20:36:00,
2013-07-18 13:41:00,81.9,11.8,29.80,NE,44,8.3,10.5,7,0.00,,---,0.00,VWS V14.01,2013-07-18 20:41:00,
2013-07-18 13:46:00,81.7,11.7,29.77,NNE,33,8.3,11.9,7,0.00,,---,0.00,VWS V14.01,2013-07-18 20:46:00,
2013-07-18 13:51:00,81.0,11.2,29.77,East,86,5.4,8.3,7,0.00,,---,0.00,VWS V14.01,2013-07-18 20:51:00,
2013-07-18 13:56:00,82.9,9.1,29.77,NE,48,10.1,11.4,6,0.00,,---,0.00,VWS V14.01,2013-07-18 20:56:00,
2013-07-18 14:01:00,78.4,12.3,29.77,ESE,112,6.3,10.5,8,0.00,,---,0.00,VWS V14.01,2013-07-18 21:01:00,
2013-07-18 14:06:00,81.9,11.8,29.77,ENE,71,8.1,8.1,7,0.00,,---,0.00,VWS V14.01,2013-07-18 21:06:00,
2013-07-18 14:11:00,84.6,10.3,29.77,NE,48,10.5,10.5,6,0.00,,---,0.00,VWS V14.01,2013-07-18 21:11:00,
2013-07-18 14:16:00,80.6,10.9,29.77,SE,125,10.5,10.5,7,0.00,,---,0.00,VWS V14.01,2013-07-18 21:16:00,
2013-07-18 14:21:00,81.0,11.2,29.77,ENE,73,8.3,8.3,7,0.00,,---,0.00,VWS V14.01,2013-07-18 21:21:00,
2013-07-18 14:26:00,84.0,9.9,29.77,NNE,28,8.1,8.1,6,0.00,,---,0.00,VWS V14.01,2013-07-18 21:26:00,
2013-07-18 14:31:00,80.8,11.0,29.77,NE,44,7.6,11.0,7,0.00,,---,0.00,VWS V14.01,2013-07-18 21:31:00,
2013-07-18 14:36:00,80.6,10.9,29.77,ESE,104,10.5,10.5,7,0.00,,---,0.00,VWS V14.01,2013-07-18 21:36:00,
2013-07-18 14:41:00,80.4,10.8,29.77,East,98,8.7,8.7,7,0.00,,---,0.00,VWS V14.01,2013-07-18 21:41:00,
2013-07-18 14:46:00,81.0,11.2,29.77,East,90,13.2,13.2,7,0.00,,---,0.00,VWS V14.01,2013-07-18 21:46:00,
2013-07-18 14:51:00,83.8,9.8,29.77,East,80,6.3,10.1,6,0.00,,---,0.00,VWS V14.01,2013-07-18 21:51:00,
2013-07-18 14:52:00,83.8,9.8,29.77,East,93,8.1,8.1,6,0.00,,---,0.00,VWS V14.01,2013-07-18 21:52:00,
2013-07-18 14:57:00,81.1,11.3,29.77,NNE,19,5.4,8.1,7,0.00,,---,0.00,VWS V14.01,2013-07-18 21:57:00,
2013-07-18 15:02:00,83.5,9.5,29.77,NNE,32,6.3,6.3,6,0.00,,---,0.00,VWS V14.01,2013-07-18 22:02:00,
2013-07-18 15:07:00,83.5,9.5,29.77,NE,50,5.8,8.7,6,0.00,,---,0.00,VWS V14.01,2013-07-18 22:07:00,
2013-07-18 15:12:00,79.2,9.8,29.77,East,94,8.3,10.5,7,0.00,,---,0.00,VWS V14.01,2013-07-18 22:12:00,
2013-07-18 15:17:00,81.5,11.6,29.77,ENE,65,8.1,9.6,7,0.00,,---,0.00,VWS V14.01,2013-07-18 22:17:00,
2013-07-18 15:22:00,83.5,9.5,29.77,NE,48,10.5,10.5,6,0.00,,---,0.00,VWS V14.01,2013-07-18 22:22:00,
2013-07-18 15:27:00,85.3,10.8,29.77,NE,36,5.4,5.4,6,0.00,,---,0.00,VWS V14.01,2013-07-18 22:27:00,
2013-07-18 15:32:00,86.0,11.4,29.77,ENE,64,8.7,8.7,6,0.00,,---,0.00,VWS V14.01,2013-07-18 22:32:00,
2013-07-18 15:37:00,86.2,11.5,29.77,ENE,59,10.5,12.3,6,0.00,,---,0.00,VWS V14.01,2013-07-18 22:37:00,
2013-07-18 15:42:00,86.2,11.5,29.74,NE,46,8.1,11.0,6,0.00,,---,0.00,VWS V14.01,2013-07-18 22:42:00,
2013-07-18 15:47:00,86.5,11.7,29.74,ESE,106,8.3,10.5,6,0.00,,---,0.00,VWS V14.01,2013-07-18 22:47:00,
2013-07-18 15:52:00,86.2,11.5,29.74,North,0,8.1,8.1,6,0.00,,---,0.00,VWS V14.01,2013-07-18 22:52:00,
2013-07-18 15:57:00,84.4,10.2,29.74,ESE,115,7.6,7.6,6,0.00,,---,0.00,VWS V14.01,2013-07-18 22:57:00,
2013-07-18 16:02:00,84.2,10.1,29.74,NE,34,8.3,8.3,6,0.00,,---,0.00,VWS V14.01,2013-07-18 23:02:00,
2013-07-18 16:07:00,85.6,11.1,29.74,NNE,22,10.5,10.5,6,0.00,,---,0.00,VWS V14.01,2013-07-18 23:07:00,
2013-07-18 16:12:00,84.4,10.2,29.74,NE,41,9.6,9.6,6,0.00,,---,0.00,VWS V14.01,2013-07-18 23:12:00,
2013-07-18 16:17:00,85.3,10.8,29.74,NE,42,4.0,8.3,6,0.00,,---,0.00,VWS V14.01,2013-07-18 23:17:00,
2013-07-18 16:22:00,81.9,11.8,29.74,East,100,10.5,13.6,7,0.00,,---,0.00,VWS V14.01,2013-07-18 23:22:00,
2013-07-18 16:27:00,82.6,8.9,29.74,East,79,10.1,11.9,6,0.00,,---,0.00,VWS V14.01,2013-07-18 23:27:00,
2013-07-18 16:32:00,84.4,10.2,29.74,NE,34,10.5,11.0,6,0.00,,---,0.00,VWS V14.01,2013-07-18 23:32:00,
2013-07-18 16:37:00,85.1,10.7,29.74,NE,50,8.3,10.1,6,0.00,,---,0.00,VWS V14.01,2013-07-18 23:37:00,
2013-07-18 16:42:00,84.9,10.6,29.74,NE,35,13.2,13.2,6,0.00,,---,0.00,VWS V14.01,2013-07-18 23:42:00,
2013-07-18 16:47:00,84.4,10.2,29.74,East,93,8.7,8.7,6,0.00,,---,0.00,VWS V14.01,2013-07-18 23:47:00,
2013-07-18 16:52:00,83.8,9.8,29.74,East,86,7.6,11.0,6,0.00,,---,0.00,VWS V14.01,2013-07-18 23:52:00,
2013-07-18 16:57:00,83.8,9.8,29.74,SE,131,7.2,7.6,6,0.00,,---,0.00,VWS V14.01,2013-07-18 23:57:00,
2013-07-18 17:02:00,81.7,11.7,29.71,East,96,7.2,7.2,7,0.00,,---,0.00,VWS V14.01,2013-07-19 00:02:00,
2013-07-18 17:07:00,82.0,11.9,29.71,East,87,8.7,8.7,7,0.00,,---,0.00,VWS V14.01,2013-07-19 00:07:00,
2013-07-18 17:12:00,83.3,9.4,29.71,NE,51,10.5,10.5,6,0.00,,---,0.00,VWS V14.01,2013-07-19 00:12:00,
2013-07-18 17:17:00,83.5,9.5,29.71,SSE,150,6.3,7.2,6,0.00,,---,0.00,VWS V14.01,2013-07-19 00:17:00,
2013-07-18 17:22:00,82.2,12.1,29.71,NE,39,8.7,8.7,7,0.00,,---,0.00,VWS V14.01,2013-07-19 00:22:00,
2013-07-18 17:27:00,81.5,11.6,29.71,SSE,148,8.1,8.1,7,0.00,,---,0.00,VWS V14.01,2013-07-19 00:27:00,
2013-07-18 17:32:00,82.4,8.8,29.71,NE,45,5.4,9.2,6,0.00,,---,0.00,VWS V14.01,2013-07-19 00:32:00,
2013-07-18 17:37:00,81.0,11.2,29.71,East,101,12.3,12.3,7,0.00,,---,0.00,VWS V14.01,2013-07-19 00:37:00,
2013-07-18 17:42:00,81.5,11.6,29.71,East,90,4.0,7.6,7,0.00,,---,0.00,VWS V14.01,2013-07-19 00:42:00,
2013-07-18 17:47:00,81.5,11.6,29.71,ESE,108,12.3,14.5,7,0.00,,---,0.00,VWS V14.01,2013-07-19 00:47:00,
2013-07-18 17:52:00,80.2,10.6,29.71,East,87,5.4,8.3,7,0.00,,---,0.00,VWS V14.01,2013-07-19 00:52:00,
2013-07-18 17:57:00,81.0,11.2,29.71,ESE,102,6.7,6.7,7,0.00,,---,0.00,VWS V14.01,2013-07-19 00:57:00,
2013-07-18 18:02:00,80.8,11.0,29.71,ESE,102,8.3,8.3,7,0.00,,---,0.00,VWS V14.01,2013-07-19 01:02:00,
2013-07-18 18:07:00,81.0,11.2,29.71,ESE,102,5.8,5.8,7,0.00,,---,0.00,VWS V14.01,2013-07-19 01:07:00,
2013-07-18 18:12:00,80.4,10.8,29.71,ESE,113,10.1,11.9,7,0.00,,---,0.00,VWS V14.01,2013-07-19 01:12:00,
2013-07-18 18:17:00,81.1,11.3,29.71,ESE,114,7.6,7.6,7,0.00,,---,0.00,VWS V14.01,2013-07-19 01:17:00,
2013-07-18 18:22:00,80.4,10.8,29.71,East,88,3.1,3.1,7,0.00,,---,0.00,VWS V14.01,2013-07-19 01:22:00,
2013-07-18 18:27:00,80.2,10.6,29.71,ESE,106,6.3,9.6,7,0.00,,---,0.00,VWS V14.01,2013-07-19 01:27:00,
2013-07-18 18:32:00,80.4,10.8,29.71,ESE,105,11.4,11.4,7,0.00,,---,0.00,VWS V14.01,2013-07-19 01:32:00,
2013-07-18 18:37:00,80.1,10.5,29.71,ESE,112,5.4,7.6,7,0.00,,---,0.00,VWS V14.01,2013-07-19 01:37:00,
2013-07-18 18:42:00,80.2,10.6,29.71,SE,134,6.3,8.3,7,0.00,,---,0.00,VWS V14.01,2013-07-19 01:42:00,
2013-07-18 18:47:00,80.2,10.6,29.71,ENE,75,7.6,8.1,7,0.00,,---,0.00,VWS V14.01,2013-07-19 01:47:00,
2013-07-18 18:52:00,79.7,10.2,29.71,East,88,9.6,9.6,7,0.00,,---,0.00,VWS V14.01,2013-07-19 01:52:00,
2013-07-18 18:57:00,79.3,10.0,29.71,East,99,12.8,13.2,7,0.00,,---,0.00,VWS V14.01,2013-07-19 01:57:00,
2013-07-18 19:02:00,79.5,10.1,29.71,East,93,11.0,11.0,7,0.00,,---,0.00,VWS V14.01,2013-07-19 02:02:00,
2013-07-18 19:07:00,79.3,10.0,29.71,ESE,109,7.6,7.6,7,0.00,,---,0.00,VWS V14.01,2013-07-19 02:07:00,
2013-07-18 19:12:00,79.2,9.8,29.71,ESE,103,10.5,10.5,7,0.00,,---,0.00,VWS V14.01,2013-07-19 02:12:00,
2013-07-18 19:17:00,79.2,9.8,29.71,ESE,116,5.8,8.7,7,0.00,,---,0.00,VWS V14.01,2013-07-19 02:17:00,
2013-07-18 19:22:00,79.0,9.7,29.71,ESE,115,10.1,10.1,7,0.00,,---,0.00,VWS V14.01,2013-07-19 02:22:00,
2013-07-18 19:27:00,78.8,9.6,29.71,ESE,105,9.2,9.2,7,0.00,,---,0.00,VWS V14.01,2013-07-19 02:27:00,
2013-07-18 19:32:00,78.8,9.6,29.71,ESE,114,10.1,11.0,7,0.00,,---,0.00,VWS V14.01,2013-07-19 02:32:00,
2013-07-18 19:37:00,78.6,12.4,29.71,ESE,104,8.7,8.7,8,0.00,,---,0.00,VWS V14.01,2013-07-19 02:37:00,
2013-07-18 19:42:00,78.4,12.3,29.71,East,80,6.3,6.3,8,0.00,,---,0.00,VWS V14.01,2013-07-19 02:42:00,
2013-07-18 19:47:00,78.3,12.2,29.71,ESE,117,5.4,8.7,8,0.00,,---,0.00,VWS V14.01,2013-07-19 02:47:00,
2013-07-18 19:52:00,77.9,11.9,29.71,ESE,113,7.6,8.1,8,0.00,,---,0.00,VWS V14.01,2013-07-19 02:52:00,
2013-07-18 19:57:00,77.5,11.6,29.71,ESE,105,5.8,8.3,8,0.00,,---,0.00,VWS V14.01,2013-07-19 02:57:00,
2013-07-18 20:02:00,77.4,11.5,29.71,ESE,121,8.7,8.7,8,0.00,,---,0.00,VWS V14.01,2013-07-19 03:02:00,
2013-07-18 20:07:00,77.2,11.4,29.71,East,99,5.8,5.8,8,0.00,,---,0.00,VWS V14.01,2013-07-19 03:07:00,
2013-07-18 20:12:00,76.5,10.8,29.71,ESE,102,5.4,5.8,8,0.00,,---,0.00,VWS V14.01,2013-07-19 03:12:00,
2013-07-18 20:17:00,76.5,10.8,29.71,ESE,107,7.6,8.7,8,0.00,,---,0.00,VWS V14.01,2013-07-19 03:17:00,
2013-07-18 20:22:00,75.7,10.3,29.71,ESE,111,6.3,7.6,8,0.00,,---,0.00,VWS V14.01,2013-07-19 03:22:00,
2013-07-18 20:27:00,75.4,10.0,29.71,ESE,103,5.8,6.3,8,0.00,,---,0.00,VWS V14.01,2013-07-19 03:27:00,
2013-07-18 20:32:00,74.8,9.6,29.71,ESE,110,4.0,5.8,8,0.00,,---,0.00,VWS V14.01,2013-07-19 03:32:00,
2013-07-18 20:37:00,73.9,9.0,29.71,ESE,114,3.1,4.0,8,0.00,,---,0.00,VWS V14.01,2013-07-19 03:37:00,
2013-07-18 20:42:00,73.2,11.1,29.71,ESE,120,4.9,4.9,9,0.00,,---,0.00,VWS V14.01,2013-07-19 03:42:00,
2013-07-18 20:47:00,72.9,10.8,29.71,East,97,5.4,5.8,9,0.00,,---,0.00,VWS V14.01,2013-07-19 03:47:00,
2013-07-18 20:52:00,72.5,10.5,29.71,ESE,105,5.4,5.4,9,0.00,,---,0.00,VWS V14.01,2013-07-19 03:52:00,
2013-07-18 20:57:00,72.1,10.2,29.71,ESE,113,4.9,5.4,9,0.00,,---,0.00,VWS V14.01,2013-07-19 03:57:00,
2013-07-18 21:01:00,71.8,10.0,29.71,ESE,105,5.8,6.3,9,0.00,,---,0.00,VWS V14.01,2013-07-19 04:01:00,
2013-07-18 21:06:00,70.9,9.3,29.71,ESE,114,3.1,4.9,9,0.00,,---,0.00,VWS V14.01,2013-07-19 04:06:00,
2013-07-18 21:11:00,70.9,9.3,29.71,ESE,104,5.4,5.4,9,0.00,,---,0.00,VWS V14.01,2013-07-19 04:11:00,
2013-07-18 21:16:00,69.8,8.5,29.74,NE,44,4.0,4.9,9,0.00,,---,0.00,VWS V14.01,2013-07-19 04:16:00,
2013-07-18 21:21:00,67.6,9.1,29.74,NE,48,4.0,4.0,10,0.00,,---,0.00,VWS V14.01,2013-07-19 04:21:00,
2013-07-18 21:26:00,67.3,8.9,29.74,NE,45,4.9,4.9,10,0.00,,---,0.00,VWS V14.01,2013-07-19 04:26:00,
2013-07-18 21:31:00,67.3,8.9,29.74,NE,51,5.4,6.3,10,0.00,,---,0.00,VWS V14.01,2013-07-19 04:31:00,
2013-07-18 21:36:00,67.3,8.9,29.74,NE,50,5.8,5.8,10,0.00,,---,0.00,VWS V14.01,2013-07-19 04:36:00,
2013-07-18 21:41:00,67.1,8.7,29.74,NE,37,2.7,3.1,10,0.00,,---,0.00,VWS V14.01,2013-07-19 04:41:00,
2013-07-18 21:46:00,66.6,8.3,29.74,ENE,57,4.9,5.8,10,0.00,,---,0.00,VWS V14.01,2013-07-19 04:46:00,
2013-07-18 21:51:00,66.4,12.3,29.74,NE,38,5.4,5.4,12,0.00,,---,0.00,VWS V14.01,2013-07-19 04:51:00,
2013-07-18 21:56:00,66.0,13.8,29.74,NE,49,5.4,5.4,13,0.00,,---,0.00,VWS V14.01,2013-07-19 04:56:00,
2013-07-18 22:01:00,65.8,13.6,29.74,NE,50,5.8,5.8,13,0.00,,---,0.00,VWS V14.01,2013-07-19 05:01:00,
2013-07-18 22:06:00,65.5,13.4,29.74,NE,44,5.4,5.4,13,0.00,,---,0.00,VWS V14.01,2013-07-19 05:06:00,
2013-07-18 22:11:00,65.1,13.1,29.74,NE,48,4.9,5.4,13,0.00,,---,0.00,VWS V14.01,2013-07-19 05:11:00,
2013-07-18 22:16:00,64.9,16.2,29.74,ENE,62,5.8,6.3,15,0.00,,---,0.00,VWS V14.01,2013-07-19 05:16:00,
2013-07-18 22:21:00,64.6,15.9,29.74,NE,44,3.6,4.0,15,0.00,,---,0.00,VWS V14.01,2013-07-19 05:21:00,
2013-07-18 22:26:00,64.2,19.9,29.74,NE,48,4.0,4.0,18,0.00,,---,0.00,VWS V14.01,2013-07-19 05:26:00,
2013-07-18 22:31:00,63.7,23.0,29.74,NE,44,4.0,4.0,21,0.00,,---,0.00,VWS V14.01,2013-07-19 05:31:00,
2013-07-18 22:36:00,63.3,24.9,29.74,NE,50,3.6,3.6,23,0.00,,---,0.00,VWS V14.01,2013-07-19 05:36:00,
2013-07-18 22:41:00,63.0,25.6,29.74,NE,43,5.8,5.8,24,0.00,,---,0.00,VWS V14.01,2013-07-19 05:41:00,
2013-07-18 22:46:00,62.8,25.5,29.74,ENE,61,5.8,5.8,24,0.00,,---,0.00,VWS V14.01,2013-07-19 05:46:00,
2013-07-18 22:51:00,62.4,26.2,29.74,NE,49,3.1,3.1,25,0.00,,---,0.00,VWS V14.01,2013-07-19 05:51:00,
2013-07-18 22:56:00,62.2,27.0,29.74,ENE,64,4.0,4.0,26,0.00,,---,0.00,VWS V14.01,2013-07-19 05:56:00,
2013-07-18 23:01:00,61.9,27.6,29.74,NE,40,4.9,4.9,27,0.00,,---,0.00,VWS V14.01,2013-07-19 06:01:00,
2013-07-18 23:06:00,61.7,27.4,29.74,NNE,32,3.6,3.6,27,0.00,,---,0.00,VWS V14.01,2013-07-19 06:06:00,
2013-07-18 23:11:00,61.7,28.3,29.74,ENE,63,4.0,4.0,28,0.00,,---,0.00,VWS V14.01,2013-07-19 06:11:00,
2013-07-18 23:16:00,61.2,27.8,29.74,NE,36,2.2,2.2,28,0.00,,---,0.00,VWS V14.01,2013-07-19 06:16:00,
2013-07-18 23:21:00,61.0,28.5,29.74,NNE,29,0.0,0.0,29,0.00,,---,0.00,VWS V14.01,2013-07-19 06:21:00,
2013-07-18 23:26:00,60.6,29.0,29.74,NE,36,0.0,0.0,30,0.00,,---,0.00,VWS V14.01,2013-07-19 06:26:00,
2013-07-18 23:31:00,60.4,29.7,29.74,NNW,330,0.0,0.0,31,0.00,,---,0.00,VWS V14.01,2013-07-19 06:31:00,
2013-07-18 23:36:00,60.4,30.5,29.74,NE,45,2.2,2.7,32,0.00,,---,0.00,VWS V14.01,2013-07-19 06:36:00,
2013-07-18 23:41:00,60.4,32.0,29.74,NE,47,3.6,4.9,34,0.00,,---,0.00,VWS V14.01,2013-07-19 06:41:00,
2013-07-18 23:46:00,60.6,31.4,29.74,NNE,19,2.7,2.7,33,0.00,,---,0.00,VWS V14.01,2013-07-19 06:46:00,
2013-07-18 23:51:00,60.3,31.1,29.77,NE,51,4.9,4.9,33,0.00,,---,0.00,VWS V14.01,2013-07-19 06:51:00,
2013-07-18 23:56:00,60.4,32.0,29.77,NE,34,2.7,3.1,34,0.00,,---,0.00,VWS V14.01,2013-07-19 06:56:00,